This is the latest recevied weather packets stored in our database for station/object BG4IKR-13. If no packets are shown the sender has not sent any weather packets the latest 10 day(s).
| Time | Temp. | Humidity | Pressure | Rain* | Wind** | Luminosity | Snow |
|---|---|---|---|---|---|---|---|
| 1777890315 | 20.56° C | 46% | 1008.1 hPa | - | - | - | - |
| 1777889247 | 20.56° C | 45% | 1008.1 hPa | - | - | - | - |
| 1777888178 | 20.56° C | 44% | 1008.3 hPa | - | - | - | - |
| 1777887115 | 20.56° C | 42% | 1008.3 hPa | - | - | - | - |
| 1777886056 | 20.56° C | 44% | 1008.4 hPa | - | - | - | - |
| 1777884994 | 20.56° C | 42% | 1008.5 hPa | - | - | - | - |
| 1777884927 | 20.56° C | 43% | 1008.5 hPa | - | - | - | - |
| 1777883773 | 20.56° C | 44% | 1008.6 hPa | - | - | - | - |
| 1777882701 | 20.56° C | 42% | 1008.7 hPa | - | - | - | - |
| 1777881640 | 20° C | 43% | 1008.8 hPa | - | - | - | - |
| 1777880570 | 20° C | 42% | 1009 hPa | - | - | - | - |
| 1777879506 | 20° C | 43% | 1009.1 hPa | - | - | - | - |
| 1777878440 | 20° C | 43% | 1009.5 hPa | - | - | - | - |
| 1777877371 | 20° C | 43% | 1009.8 hPa | - | - | - | - |
| 1777876303 | 20° C | 43% | 1010.1 hPa | - | - | - | - |
| 1777875231 | 19.44° C | 43% | 1010.3 hPa | - | - | - | - |
| 1777874165 | 19.44° C | 43% | 1010.7 hPa | - | - | - | - |
| 1777873103 | 19.44° C | 42% | 1010.9 hPa | - | - | - | - |
| 1777872043 | 19.44° C | 43% | 1011.2 hPa | - | - | - | - |
| 1777870987 | 19.44° C | 43% | 1011.4 hPa | - | - | - | - |
| 1777869922 | 18.33° C | 44% | 1011.8 hPa | - | - | - | - |
| 1777868860 | 18.89° C | 42% | 1012.1 hPa | - | - | - | - |
| 1777867796 | 18.33° C | 45% | 1012.2 hPa | - | - | - | - |
| 1777866731 | 18.33° C | 44% | 1012.5 hPa | - | - | - | - |
| 1777865595 | 18.33° C | 46% | 1012.9 hPa | - | - | - | - |
* Rain since midnight (hover to see other rain measurements)
** Current wind speed in m/s (hover to see current wind gust speed)